STARLINK-3085, 49156

Orbit data source: Space-Track

STARLINK-3085, 49156 is a payload satellite owned by SpaceX/Seattle (US) in LEO that was launched on Tue, 14 Sep 2021 UTC via an FALCON 9 launch vehicle from the Air Force Western Test Range (AFWTR). Payload-class satellites include a variety of spacecraft equipped with specific instruments for various scientific and technological missions. These include communications satellites like Starlink; space stations such as the ISS; scientific satellites like the Hubble; Earth observation satellites from companies like Planet Labs, Umbra, and HawkEye 360; GPS; miniature CubeSats for education and research; and military/defense satellites.

Loading next visibility...
Identifier
49156, 2021-082AC
Orbit
LEO
Country
Flag of USUS
Related business
Manufacturer
SpaceX/Seattle
Mission
Operational Commercial Communications
Bus & Motor
STARLINK, Unknown motor
Mass
297 kg wet, ~275 kg dry
Launch date (UTC)
2021-09-14 (4 years ago)
Launch vehicle
FALCON 9
Launch site
Air Force Western Test Range (AFWTR)
Object type
Payload
Rocket body
Debris
Shape & HBR
Box + 1 Pan, 10.1 m
Radar Cross Section
13.562 m², Large (>1 m²)

Expand to show TLE details & history
Last TLE update: 17 hours ago

TLE from 17 hours ago
0 STARLINK-3085
1 49156U 21082AC  26071.74690583 -.00000251  00000-0 -13261-4 0  9993
2 49156  69.9986 246.7375 0003009 272.2043  87.8771 14.98336090248500
Epoch: 2026-03-12T17:55Z
TLE epoch observation values (Epoch: 2026-03-12T17:55:32.663Z)
Latitude
-0.00008°
Longitude
167.45901°
Altitude
574.384 km
Speed
7.574 km/s
True Right ascension
16h 26m 56s
True Declination
0° 00' 00"
Sunlit
Object was in daylight at epoch
Visualization orbit readout
Latitude
Unknown
Longitude
Unknown
Altitude
Unknown
Speed
Unknown
Apparent Right ascension
Unknown
Apparent Declination
Unknown
Sunlit
N/A
Visualization observer readout
Local Sidereal Time
15:06:21
Azimuth
Unknown
Elevation
Unknown
Doppler factor
Unknown
Orbital elements
Apogee altitude
572.076 km
Perigee altitude
567.895 km
Semi-major axis
6,948.122 km
Eccentricity
0.0003
Inclination
69.9986°
RAAN
246.7375°
Arg. of periapsis
272.2043°
True anomaly
87.91156°
Mean anomaly
87.8771°
Eccentric anomaly
87.89433°
Mean motion
3.7475 °/min
Orbital period
96.06 mins
BSTAR
-0.000013261
Loading maneuver chart data...
Computing Atmospheric mass density...

Documentation

Showing up to 5 results
|